Regional Weather Roundup
Issued by NWS Little Rock, AR

Home | Current Version | Previous Version | Text Only | Print | Product List | Glossary Off
Versions: 1 2 3 4 5 6 7 8 9 10 11 12 13 14 15 16 17 18 19 20 21 22 23 24 25 26 27 28 29 30 31 32 33 34 35 36 37 38 39 40 41 42 43 44 45 46 47 48 49 50

000
ASUS44 KLZK 261905
RWRLZK

WEATHER ROUNDUP FOR ARKANSAS
NATIONAL WEATHER SERVICE LITTLE ROCK AR
200 PM CDT THU MAR 26 2015

NOTE: "FAIR" INDICATES FEW OR NO CLOUDS BELOW 12,000 FEET WITH NO
SIGNIFICANT WEATHER AND/OR OBSTRUCTIONS TO VISIBILITY.

ARZ001-003-010-029-262000-
NORTHWEST ARKANSAS

CITY           SKY/WX    TMP DP  RH WIND       PRES   REMARKS
FAYETTEVILLE   SUNNY     51  38  60 N13G23    30.11F
FORT SMITH     SUNNY     57  37  47 N17       30.10F
HARRISON       MOSUNNY   49  36  61 NW15G21   30.09F
BENTONVILLE    SUNNY     50  34  53 N9G20     30.12F
ROGERS         SUNNY     50  34  54 N14       30.12F
SILOAM SPGS    SUNNY     52  34  50 N20G25    30.13F
HIGHFILL       SUNNY     52  34  50 N16       30.11F
SPRINGDALE     MOSUNNY   50  36  57 N15       30.12
$$

ARZ004-005-016-262000-
NORTH CENTRAL ARKANSAS

CITY           SKY/WX    TMP DP  RH WIND       PRES   REMARKS
BATESVILLE     CLOUDY    46  41  81 NW6       30.06R
FLIPPIN        PTSUNNY   48  36  61 NW12G17   30.08F
MTN HOME       PTSUNNY   49  33  54 NW9G17    30.07F
$$

ARZ040-041-262000-
WEST CENTRAL ARKANSAS

CITY           SKY/WX    TMP DP  RH WIND       PRES   REMARKS
MENA           MOSUNNY   57  45  62 NW13G18   30.06F
MOUNT IDA      CLOUDY    54  44  69 N8        30.03S
$$

ARZ009-017-025-026-028-262000-
NORTHEAST ARKANSAS

CITY           SKY/WX    TMP DP  RH WIND       PRES   REMARKS
CORNING          N/A     46  39  76 N15       30.05F
JONESBORO      LGT RAIN  45  42  89 N8G20     30.04S
NEWPORT        CLOUDY    47  44  89 N15       30.06S
BLYTHEVILLE    LGT RAIN  45  44  97 N20       30.04S FOG
NW BLYTHEVILLE CLOUDY    45  45 100 N15G25    30.04S FOG
$$

ARZ022-023-033-042-044-262000-
CENTRAL ARKANSAS

CITY           SKY/WX    TMP DP  RH WIND       PRES   REMARKS
LITTLE ROCK    LGT RAIN  51  44  77 N12       30.04F
JACKSONVILLE   CLOUDY    50  44  80 NW10      30.04R
SEARCY         CLOUDY    50  45  83 N10G21    30.06R
HOT SPRINGS    CLOUDY    54  43  66 N12G20    30.04S
RUSSELLVILLE   PTSUNNY   54  42  64 N15G23    30.06F
CLINTON        CLOUDY    48  39  71 N5        30.09S
$$

ARZ036-262000-
EAST ARKANSAS

CITY           SKY/WX    TMP DP  RH WIND       PRES   REMARKS
WEST MEMPHIS   CLOUDY    47  45  93 N21G33    29.99F
$$

ARZ050-053-066-070-073-262000-
SOUTHWEST ARKANSAS

CITY           SKY/WX    TMP DP  RH WIND       PRES   REMARKS
ARKADELPHIA    LGT RAIN  53  50  90 N9        30.04S
CAMDEN         CLOUDY    54  46  76 MISG      30.01S
TEXARKANA      LGT RAIN  53  51  93 N15G22    30.03F
EL DORADO      CLOUDY    53  49  86 N17G25    29.98R
$$

ARZ056-057-069-262000-
SOUTHEAST ARKANSAS

CITY           SKY/WX    TMP DP  RH WIND       PRES   REMARKS
PINE BLUFF     CLOUDY    50  47  89 N17G26    30.02S
STUTTGART      CLOUDY    48  45  87 N17       30.03R
MONTICELLO     LGT RAIN  52  48  86 N9G23     29.98R FOG

$$





USA.gov is the U.S. government's official web portal to all federal, state and local government web resources and services.